CW1248 Weather Reports


Display with metric or nautical units.
time (UTC)temp
F
wind
direction
speed
MPH
gust
MPH
rain 1hr
in
rain 24hr
in
rain mn
in
humidity
%
barometer
mb
20260506001514 46 259 7.0 15.0 0.00 0.00 0.00 43 1011.4
20260506001007 46 307 6.0 20.0 0.00 0.00 0.00 43 1011.4
20260506000504 47 257 9.0 20.0 0.00 0.00 0.00 42 1011.3
20260506000015 47 300 9.0 16.0 0.00 0.00 0.00 43 1011.3
20260505235507 47 218 7.0 13.0 0.00 0.00 0.00 42 1011.3
20260505235010 47 265 5.0 16.0 0.00 0.00 0.00 42 1011.3
20260505234512 47 265 9.0 16.0 0.00 0.00 0.00 42 1011.2
20260505234007 47 309 9.0 15.0 0.00 0.00 0.00 41 1011.1
20260505233503 48 221 9.0 15.0 0.00 0.00 0.00 42 1011.2
20260505233021 48 292 7.0 20.0 0.00 0.00 0.00 41 1011.1
20260505232506 48 309 9.0 20.0 0.00 0.00 0.00 40 1011.1
20260505232010 48 275 5.0 15.0 0.00 0.00 0.00 42 1011.1
20260505231519 48 313 10.0 16.0 0.00 0.00 0.00 41 1011.1
20260505231008 48 51 7.0 16.0 0.00 0.00 0.00 40 1011.1
20260505230509 48 286 8.0 16.0 0.00 0.00 0.00 42 1011.2
20260505230005 48 292 8.0 17.0 0.00 0.00 0.00 41 1011.3
20260505225504 48 252 9.0 19.0 0.00 0.00 0.00 40 1011.3
20260505225004 49 308 13.0 19.0 0.00 0.00 0.00 40 1011.2
20260505224512 49 294 9.0 19.0 0.00 0.00 0.00 40 1011.2
20260505224003 50 298 11.0 21.0 0.00 0.00 0.00 38 1011.1
20260505223506 50 282 11.0 21.0 0.00 0.00 0.00 39 1011.0
20260505223013 49 284 7.0 18.0 0.00 0.00 0.00 41 1011.1
20260505222505 49 235 9.0 18.0 0.00 0.00 0.00 40 1011.0
20260505222003 49 303 10.0 20.0 0.00 0.00 0.00 41 1011.0
20260505221516 50 289 10.0 20.0 0.00 0.00 0.00 39 1011.0
20260505221013 50 221 9.0 19.0 0.00 0.00 0.00 40 1011.0
20260505220502 51 255 11.0 19.0 0.00 0.00 0.00 39 1010.9
20260505220018 50 250 9.0 19.0 0.00 0.00 0.00 41 1010.9
20260505215503 50 309 10.0 23.0 0.00 0.00 0.00 40 1010.9
20260505215003 50 249 10.0 23.0 0.00 0.00 0.00 39 1011.0
20260505214507 50 313 9.0 18.0 0.00 0.00 0.00 41 1011.0
20260505214002 50 338 10.0 16.0 0.00 0.00 0.00 39 1011.0
20260505213503 50 334 8.0 19.0 0.00 0.00 0.00 39 1011.2
20260505213008 50 277 9.0 22.0 0.00 0.00 0.00 41 1011.2
20260505212506 49 232 13.0 22.0 0.00 0.00 0.00 39 1011.2
20260505212008 49 273 8.0 18.0 0.00 0.00 0.00 40 1011.2
20260505211503 49 309 7.0 18.0 0.00 0.00 0.00 40 1011.2
20260505211003 49 247 7.0 18.0 0.00 0.00 0.00 42 1011.3
20260505210506 49 250 8.0 19.0 0.00 0.00 0.00 42 1011.3
20260505210004 49 249 10.0 21.0 0.00 0.00 0.00 42 1011.3
20260505205506 49 282 9.0 21.0 0.00 0.00 0.00 40 1011.4
20260505205005 49 259 9.0 17.0 0.00 0.00 0.00 40 1011.3
20260505204509 49 309 9.0 18.0 0.00 0.00 0.00 39 1011.2
20260505204003 49 252 9.0 18.0 0.00 0.00 0.00 41 1011.3
20260505203502 50 229 10.0 18.0 0.00 0.00 0.00 39 1011.3
20260505203016 50 254 11.0 19.0 0.00 0.00 0.00 40 1011.4
20260505202507 49 279 11.0 19.0 0.00 0.00 0.00 42 1011.4
20260505202004 49 275 8.0 20.0 0.00 0.00 0.00 45 1011.4
20260505201511 48 303 11.0 20.0 0.00 0.00 0.00 44 1011.5
20260505201006 48 237 9.0 18.0 0.00 0.00 0.00 42 1011.6
20260505200510 48 232 11.0 18.0 0.00 0.00 0.00 42 1011.6
20260505200014 48 236 10.0 15.0 0.00 0.00 0.00 43 1011.5
20260505195503 48 292 11.0 19.0 0.00 0.00 0.00 43 1011.5
20260505195008 48 261 8.0 24.0 0.00 0.00 0.00 42 1011.5
20260505194508 49 240 15.0 24.0 0.00 0.00 0.00 41 1011.6
20260505194004 50 241 7.0 17.0 0.00 0.00 0.00 41 1011.5
20260505193507 51 244 11.0 17.0 0.00 0.00 0.00 42 1011.4
20260505193019 50 284 9.0 16.0 0.00 0.00 0.00 44 1011.5
20260505192507 48 269 8.0 16.0 0.00 0.00 0.00 45 1011.6
20260505192007 48 232 8.0 17.0 0.00 0.00 0.00 43 1011.6
20260505191528 48 266 10.0 20.0 0.00 0.00 0.00 42 1011.4
20260505191003 49 249 12.0 20.0 0.00 0.00 0.00 42 1011.5
20260505190504 49 268 11.0 17.0 0.00 0.00 0.00 42 1011.4
20260505190008 49 273 5.0 17.0 0.00 0.00 0.00 46 1011.6
20260505185503 48 221 7.0 20.0 0.00 0.00 0.00 44 1011.7
20260505185004 48 302 10.0 20.0 0.00 0.00 0.00 43 1011.8
20260505184516 48 286 7.0 15.0 0.00 0.00 0.00 44 1011.7
20260505184005 48 298 8.0 16.0 0.00 0.00 0.00 43 1011.7
20260505183506 48 279 9.0 16.0 0.00 0.00 0.00 41 1011.6
20260505183013 49 252 10.0 22.0 0.00 0.00 0.00 42 1011.6
20260505182506 49 294 14.0 22.0 0.00 0.00 0.00 41 1011.7
20260505182012 49 272 12.0 19.0 0.00 0.00 0.00 40 1011.5
20260505181512 49 266 6.0 22.0 0.00 0.00 0.00 39 1011.6
20260505181005 49 307 13.0 22.0 0.00 0.00 0.00 39 1011.5
20260505180502 50 254 12.0 19.0 0.00 0.00 0.00 42 1011.5
20260505180012 49 277 9.0 21.0 0.00 0.00 0.00 43 1011.6
20260505175504 48 292 11.0 21.0 0.00 0.00 0.00 41 1011.6
20260505175004 48 294 10.0 20.0 0.00 0.00 0.00 42 1011.6
20260505174516 48 248 6.0 24.0 0.00 0.00 0.00 40 1011.5
20260505174005 49 279 11.0 24.0 0.00 0.00 0.00 40 1011.5
20260505173510 49 263 8.0 18.0 0.00 0.00 0.00 41 1011.6
20260505173023 48 250 7.0 13.0 0.00 0.00 0.00 42 1011.6
20260505172509 47 275 7.0 14.0 0.00 0.00 0.00 42 1011.7
20260505172005 47 254 8.0 18.0 0.00 0.00 0.00 41 1011.7
20260505171519 47 255 10.0 21.0 0.00 0.00 0.00 40 1011.7
20260505171007 48 307 12.0 21.0 0.00 0.00 0.00 40 1011.7
20260505170505 49 261 12.0 18.0 0.00 0.00 0.00 41 1011.6
20260505170011 48 263 12.0 18.0 0.00 0.00 0.00 43 1011.6
20260505165506 47 252 7.0 16.0 0.00 0.00 0.00 42 1011.7
20260505165007 48 240 7.0 16.0 0.00 0.00 0.00 42 1011.7
20260505164512 48 312 9.0 15.0 0.00 0.00 0.00 41 1011.7
20260505164007 48 310 9.0 15.0 0.00 0.00 0.00 42 1011.7
20260505163506 47 338 7.0 15.0 0.00 0.00 0.00 40 1011.7
20260505163024 47 250 7.0 16.0 0.00 0.00 0.00 44 1011.7
20260505162511 46 257 9.0 18.0 0.00 0.00 0.00 44 1011.7
20260505162009 47 257 11.0 18.0 0.00 0.00 0.00 41 1011.7
20260505161538 47 265 9.0 16.0 0.00 0.00 0.00 40 1011.7
20260505161003 48 261 6.0 20.0 0.00 0.00 0.00 42 1011.6
20260505160505 49 257 12.0 20.0 0.00 0.00 0.00 40 1011.7
20260505153021 46 347 7.0 17.0 0.00 0.00 0.00 44 1011.6
20260505152508 46 236 9.0 17.0 0.00 0.00 0.00 45 1011.6
20260505152010 46 311 8.0 15.0 0.00 0.00 0.00 44 1011.6
20260505151516 46 270 7.0 13.0 0.00 0.00 0.00 46 1011.7
20260505151006 45 306 7.0 13.0 0.00 0.00 0.00 44 1011.6
20260505150506 45 286 6.0 12.0 0.00 0.00 0.00 45 1011.6
20260505140508 42 338 3.0 12.0 0.00 0.00 0.00 47 1011.2
20260505125003 39 317 8.0 13.0 0.00 0.00 0.00 54 1010.6
20260505124509 39 277 6.0 13.0 0.00 0.00 0.00 55 1010.5
20260505124002 38 324 6.0 13.0 0.00 0.00 0.00 55 1010.4
20260505123502 38 306 6.0 13.0 0.00 0.00 0.00 57 1010.4
20260505123003 38 289 3.0 11.0 0.00 0.00 0.00 58 1010.2
20260505122503 38 316 4.0 11.0 0.00 0.00 0.00 60 1010.1
20260505122004 37 234 4.0 11.0 0.00 0.00 0.00 61 1010.1
20260505121529 37 302 3.0 10.0 0.00 0.00 0.00 62 1010.0
20260505121003 36 309 2.0 10.0 0.00 0.00 0.00 64 1010.0
20260505120502 36 334 2.0 10.0 0.00 0.00 0.00 65 1009.8
20260505120015 36 312 3.0 9.0 0.00 0.00 0.00 66 1009.8
20260505115502 36 305 3.0 8.0 0.00 0.00 0.00 67 1009.7
20260505115003 36 16 3.0 12.0 0.00 0.00 0.00 68 1009.7
20260505114503 35 43 5.0 12.0 0.00 0.00 0.00 68 1009.6
20260505114004 35 13 2.0 7.0 0.00 0.00 0.00 69 1009.5
20260505113503 35 338 3.0 8.0 0.00 0.00 0.00 69 1009.3
20260505113008 35 313 2.0 8.0 0.00 0.00 0.00 70 1009.1
20260505112505 35 51 4.0 8.0 0.00 0.00 0.00 70 1009.1
20260505112007 36 277 3.0 7.0 0.00 0.00 0.00 70 1009.0
20260505111506 36 265 1.0 8.0 0.00 0.00 0.00 70 1009.0
20260505111008 36 249 4.0 9.0 0.00 0.00 0.00 69 1008.9
20260505110510 36 297 3.0 9.0 0.00 0.00 0.00 69 1008.9
20260505102006 37 282 2.0 7.0 0.00 0.00 0.00 66 1008.5
20260505101520 37 309 2.0 5.0 0.00 0.00 0.00 66 1008.5
20260505101009 37 314 2.0 8.0 0.00 0.00 0.00 65 1008.6
20260505100503 37 277 3.0 8.0 0.00 0.00 0.00 65 1008.6
20260505100017 37 309 4.0 9.0 0.00 0.00 0.00 65 1008.5
20260505095510 37 311 5.0 10.0 0.00 0.00 0.00 65 1008.6
20260505095004 38 301 4.0 10.0 0.00 0.00 0.00 64 1008.6
20260505094507 38 268 5.0 10.0 0.00 0.00 0.00 64 1008.6
20260505094007 38 297 4.0 10.0 0.00 0.00 0.00 64 1008.5
20260505093504 38 309 4.0 10.0 0.00 0.00 0.00 64 1008.4
20260505093008 38 250 3.0 14.0 0.00 0.00 0.00 64 1008.3
20260505092504 38 9 5.0 14.0 0.00 0.00 0.00 63 1008.2
20260505092007 38 333 4.0 11.0 0.00 0.00 0.00 63 1008.2
20260505091520 38 332 3.0 11.0 0.00 0.00 0.00 62 1008.1
20260505091006 38 306 3.0 10.0 0.00 0.00 0.00 62 1008.1
20260505090506 38 300 5.0 10.0 0.00 0.00 0.00 62 1008.1
20260505090037 38 307 5.0 12.0 0.00 0.00 0.00 61 1008.0
20260505085503 38 309 6.0 12.0 0.00 0.00 0.00 61 1008.0
20260505085005 38 304 6.0 14.0 0.00 0.00 0.00 61 1007.9
20260505084510 38 288 6.0 14.0 0.00 0.00 0.00 61 1007.9
20260505084004 38 289 5.0 12.0 0.00 0.00 0.00 62 1007.9
20260505083504 38 303 7.0 12.0 0.00 0.00 0.00 62 1007.7
20260505083018 38 250 6.0 13.0 0.00 0.00 0.00 63 1007.7
20260505082510 38 293 5.0 13.0 0.00 0.00 0.00 63 1007.6
20260505082008 38 273 7.0 13.0 0.00 0.00 0.00 64 1007.6
20260505081513 38 268 5.0 11.0 0.00 0.00 0.00 64 1007.6
20260505081008 38 292 6.0 9.0 0.00 0.00 0.00 65 1007.6
20260505080508 38 281 6.0 11.0 0.00 0.00 0.00 65 1007.6
20260505080032 38 273 4.0 11.0 0.00 0.00 0.00 65 1007.5
20260505075506 38 295 4.0 9.0 0.00 0.00 0.00 65 1007.5
20260505075003 38 271 3.0 8.0 0.00 0.00 0.00 65 1007.3
20260505074510 38 288 3.0 8.0 0.00 0.00 0.00 66 1007.3
20260505074004 38 261 3.0 9.0 0.00 0.00 0.00 66 1007.4
20260505073505 38 259 5.0 9.0 0.00 0.00 0.00 66 1007.5
20260505073028 38 272 4.0 9.0 0.00 0.00 0.00 66 1007.4
20260505072502 38 332 5.0 9.0 0.00 0.00 0.00 66 1007.3
20260505072010 38 217 3.0 9.0 0.00 0.00 0.00 66 1007.4
20260505071532 38 257 3.0 7.0 0.00 0.00 0.00 66 1007.4
20260505071010 38 242 3.0 7.0 0.00 0.00 0.00 66 1007.5
20260505070504 38 242 3.0 7.0 0.00 0.00 0.00 66 1007.5
20260505070024 38 250 3.0 9.0 0.00 0.00 0.00 66 1007.5
20260505065509 38 304 4.0 9.0 0.00 0.00 0.00 65 1007.6
20260505065003 38 281 4.0 9.0 0.00 0.00 0.00 65 1007.6
20260505064510 38 296 3.0 7.0 0.00 0.00 0.00 64 1007.6
20260505064006 38 273 2.0 5.0 0.00 0.00 0.00 64 1007.5
20260505063504 38 275 3.0 7.0 0.00 0.00 0.00 63 1007.5
20260505063012 38 304 2.0 7.0 0.00 0.00 0.00 63 1007.5
20260505062507 38 301 3.0 6.0 0.00 0.00 0.00 63 1007.6
20260505062007 39 249 3.0 9.0 0.00 0.00 0.00 63 1007.5
20260505061528 39 273 5.0 9.0 0.00 0.00 0.00 63 1007.6
20260505061006 39 277 4.0 8.0 0.00 0.00 0.00 63 1007.6
20260505060509 39 255 5.0 8.0 0.00 0.00 0.00 62 1007.6
20260505060034 39 272 3.0 8.0 0.00 0.00 0.00 62 1007.7
20260505055504 39 257 3.0 8.0 0.00 0.00 0.00 62 1007.6
20260505055004 39 242 3.0 8.0 0.00 0.00 0.00 62 1007.4
20260505054516 39 221 3.0 8.0 0.00 0.00 0.00 62 1007.4
20260505054006 39 236 2.0 8.0 0.00 0.00 0.00 61 1007.3
20260505053506 40 247 3.0 8.0 0.00 0.00 0.00 60 1007.4
20260505053025 40 241 3.0 10.0 0.00 0.00 0.00 60 1007.4
20260505052507 40 265 5.0 10.0 0.00 0.00 0.00 59 1007.4
20260505052008 40 236 3.0 7.0 0.00 0.00 0.00 59 1007.3
20260505051518 40 234 3.0 7.0 0.00 0.00 0.00 58 1007.3
20260505051013 40 245 3.0 7.0 0.00 0.00 0.00 58 1007.2
20260505050510 40 257 3.0 7.0 0.00 0.00 0.00 58 1007.2
20260505041509 42 243 3.0 8.0 0.00 0.00 0.00 55 1007.2
20260505041003 42 243 3.0 8.0 0.00 0.00 0.00 54 1007.1
20260505040503 42 254 3.0 9.0 0.00 0.00 0.00 54 1007.2
20260505040004 42 261 5.0 9.0 0.00 0.00 0.00 53 1007.2
20260505035508 42 275 4.0 8.0 0.00 0.00 0.00 53 1007.1
20260505035008 42 255 3.0 8.0 0.00 0.00 0.00 53 1007.1
20260505034503 42 241 3.0 8.0 0.00 0.00 0.00 53 1007.0
20260505034004 42 257 3.0 7.0 0.00 0.00 0.00 53 1006.9
20260505033503 42 238 3.0 7.0 0.00 0.00 0.00 53 1006.9
20260505033005 42 236 3.0 8.0 0.00 0.00 0.00 52 1007.0
20260505032503 42 242 4.0 8.0 0.00 0.00 0.00 52 1007.0
20260505032005 43 249 4.0 7.0 0.00 0.00 0.00 52 1007.0
20260505031506 43 247 4.0 8.0 0.00 0.00 0.00 51 1007.0
20260505031005 43 250 3.0 8.0 0.00 0.00 0.00 51 1007.0
20260505030504 43 236 3.0 7.0 0.00 0.00 0.00 50 1007.0
20260505030012 43 236 2.0 7.0 0.00 0.00 0.00 50 1007.0
20260505025504 44 259 3.0 7.0 0.00 0.00 0.00 50 1006.9
20260505025004 44 265 2.0 7.0 0.00 0.00 0.00 49 1006.8
20260505024507 44 245 3.0 7.0 0.00 0.00 0.00 49 1006.8
20260505024008 44 277 2.0 7.0 0.00 0.00 0.00 49 1006.8
20260505023503 44 245 4.0 9.0 0.00 0.00 0.00 48 1006.7
20260505023003 45 277 4.0 9.0 0.00 0.00 0.00 48 1006.6
20260505022503 45 265 4.0 7.0 0.00 0.00 0.00 48 1006.6
20260505022006 45 272 3.0 7.0 0.00 0.00 0.00 47 1006.5
20260505021503 45 250 3.0 9.0 0.00 0.00 0.00 47 1006.5
20260505021003 45 232 4.0 9.0 0.00 0.00 0.00 46 1006.4
20260505020504 46 242 5.0 13.0 0.00 0.00 0.00 46 1006.3
20260505020017 46 291 6.0 13.0 0.00 0.00 0.00 45 1006.3
20260505015504 46 294 6.0 16.0 0.00 0.00 0.00 46 1006.4
20260505015004 46 279 5.0 16.0 0.00 0.00 0.00 44 1006.2
20260505014531 46 287 8.0 13.0 0.00 0.00 0.00 44 1006.2
20260505014003 47 295 5.0 13.0 0.00 0.00 0.00 44 1006.3
20260505013504 47 279 5.0 18.0 0.00 0.00 0.00 43 1006.1
20260505013004 47 241 7.0 22.0 0.00 0.00 0.00 43 1006.0
20260505012504 47 272 8.0 24.0 0.00 0.00 0.00 42 1005.9
20260505012004 48 266 11.0 24.0 0.00 0.00 0.00 43 1005.7
20260505011507 48 302 11.0 23.0 0.00 0.00 0.00 43 1005.6
20260505011006 48 279 10.0 21.0 0.00 0.00 0.00 43 1005.6
20260505010503 49 293 12.0 26.0 0.00 0.00 0.00 43 1005.6
20260505010007 49 267 11.0 26.0 0.00 0.00 0.00 43 1005.5
20260505005504 49 296 11.0 24.0 0.00 0.00 0.00 43 1005.5
20260505005008 50 303 11.0 24.0 0.00 0.00 0.00 43 1005.1
20260505004513 50 293 11.0 25.0 0.00 0.00 0.00 42 1005.1
20260505004006 50 273 15.0 27.0 0.00 0.00 0.00 42 1004.9
20260505003504 50 294 15.0 27.0 0.00 0.00 0.00 41 1004.9
20260505003006 51 293 13.0 26.0 0.00 0.00 0.00 41 1004.9
20260505002504 51 263 11.0 26.0 0.00 0.00 0.00 41 1004.8
20260505002004 51 257 13.0 25.0 0.00 0.00 0.00 40 1004.7